Notices

What's New in latest Release from April 7th, 2021:

- Updated Glossary, including Speed of Maximum Gust, and Total Hourly Precipitation

- Updated national and regional climate services offices contacts and prices information

- Addition of station inventory lists for 1981-2010, 1971-2000, and 1961-1990 Normals.

If you haven't already, please take our survey and provide feedback about our website: https://eccc.sondage-survey.ca/f/LanguageSelection.aspx?s=442ca660-fcf1-47c0-95a9-59707d6fd709

Hourly Data Report for March 12, 2012

HALIFAX STANFIELD INT'L A
NOVA SCOTIA

44°52'48.060" N
63°30'00.050" W
145.40 m
8202250
71395
YHZ

Download Data

Hourly Data (March 2012)
Hourly Data Report for March 12, 2012
TIME
LST
Temp Definition
°C
Dew Point Definition
°C
Rel Hum Definition
%
Precip. Amount Definition
mm

Wind Dir Definition
10's deg

Wind Spd Definition
km/h
Visibility Definition
km
Stn Press Definition
kPa
Hmdx Definition


Wind Chill Definition


Weather Definition


00:00 -0.8 -1.8 93   19 7 24.1 100.51   -3 Clear
01:00 1.3 -2.1 78   20 9 24.1 100.47     Clear
02:00 -0.1 -1.0 94   22 19 24.1 100.44   -5 Clear
03:00 -0.4 -1.0 96   23 13 24.1 100.35   -5 Mainly Clear
04:00 -0.1 -0.6 96   20 13 24.1 100.31   -4 Cloudy
05:00 0.0 -0.4 97   20 19 24.1 100.28   -5 Mostly Cloudy
06:00 -0.4 -0.8 97   21 15 19.3 100.23   -5 Mainly Clear
07:00 -0.5 -0.9 97   23 11 0.8 100.23   -4 Freezing Fog
08:00 0.8 0.5 98   24 7 9.7 100.27     Fog
09:00 3.4 0.5 81   26 9 24.1 100.27     Mainly Clear
10:00 5.4 0.7 72   27 4 24.1 100.23     Mainly Clear
11:00 7.7 0.5 60   27 7 24.1 100.20     Mainly Clear
12:00 10.1 0.6 52   29 20 24.1 100.16     Mainly Clear
13:00 11.1 0.7 49   29 26 24.1 100.13     Mainly Clear
14:00 10.9 -0.2 46   30 20 24.1 100.10     Clear
15:00 11.4 -1.3 41   30 24 24.1 100.07     Clear
16:00 11.5 -2.6 37   31 19 24.1 100.05     Clear
17:00 10.4 -3.0 39   31 20 24.1 100.09     Mainly Clear
18:00 8.0 -3.2 45   29 13 24.1 100.14     Mainly Clear
19:00 4.7 -3.6 55   26 6 24.1 100.19     Mainly Clear
20:00 4.6 -3.6 55   25 7 24.1 100.25     Clear
21:00 3.2 -4.0 59   27 6 24.1 100.27     Clear
22:00 4.4 -3.9 55   27 9 24.1 100.29     Clear
23:00 3.7 -3.9 58   27 9 24.1 100.29     Clear

Notes on Data Quality.

Legend

  • E = Estimated
  • M = Missing
  • NA = Not Available*
  • [empty] = Indicates an unobserved value
Date modified: